[[{"header":{"parameterUnit":"m.s-1","parameterCategory":1,"la1":30.2991,"la2":30.254,"lo1":-89.0895,"lo2":-89.0444,"dy":0.0017,"dx":0.0017,"nx":28,"ny":28,"refTime":"2025-04-24T21:00:00:Z","depth":0,"parameterNumber":2,"parameterNumberName":"U-component_of_WINDS"},"data":[0,0,0,0,0,0,0,0,0,0,0,0,0,0,0,0,0,0,0,0,0,0,0,0,0,0,0,0,0,0,0,0,0,0,0,0,0,0,0,0,0,0,0,0,0,0,0,0,0,0,0,0,0,0,0,0,0,0,-0.7705,-0.7706,0,-0.7808,-0.781,-0.7811,-0.7848,-0.7848,-0.7848,-0.7847,-0.7956,-0.7959,-0.7963,0,0,0,0,0,0,0,0,0,0,0,0,0,-0.7543,-0.7545,-0.7705,-0.7706,-0.7707,-0.7808,-0.781,-0.7811,-0.7848,-0.7848,-0.7848,-0.7847,-0.7955,-0.7959,-0.7963,0,0,0,0,0,0,0,0,0,0,0,0,0,-0.7626,-0.7546,-0.7704,-0.7738,-0.7742,-0.7808,-0.781,-0.7812,-0.7849,-0.7848,-0.7847,-0.7847,-0.7954,-0.7959,-0.7963,-0.8004,0,0,-0.7978,-0.798,0,0,0,0,0,0,0,0,-0.7622,-0.7632,-0.7732,-0.7736,-0.774,-0.7815,-0.7793,-0.7876,-0.7849,-0.7808,-0.7847,-0.7847,-0.791,-0.7918,-0.7939,-0.801,-0.8014,-0.7979,-0.7982,-0.7984,-0.7985,0,0,0,0,0,0,0,-0.7616,-0.7628,-0.7746,-0.7733,-0.7738,-0.7749,-0.776,-0.7809,-0.7861,-0.7812,-0.7815,-0.7826,-0.7912,-0.7934,-0.7942,-0.8016,-0.7979,-0.7983,-0.7986,-0.7988,-0.8127,-0.8128,0,0,0,0,0,0,-0.7604,-0.7623,-0.7743,-0.7749,-0.7678,-0.7752,-0.7765,-0.7792,-0.786,-0.787,-0.7827,-0.7828,-0.7926,-0.7936,-0.7946,-0.7999,-0.7984,-0.7988,-0.7991,-0.8126,-0.8127,-0.8128,0,0,0,0,0,0,-0.76,-0.7614,-0.7738,-0.7687,-0.7703,-0.7756,-0.7785,-0.7794,-0.7816,-0.7872,-0.7882,-0.7839,-0.7926,-0.7939,-0.799,-0.8004,-0.799,-0.7995,-0.8125,-0.8127,-0.8128,-0.8106,0,0,0,0,0,0,-0.7595,-0.7613,-0.7628,-0.7687,-0.7706,-0.7779,-0.7786,-0.7796,-0.7824,-0.7826,-0.7886,-0.7896,-0.7927,-0.7982,-0.7995,-0.801,-0.7999,-0.8124,-0.8126,-0.8127,-0.8106,-0.8106,-0.8107,0,0,0,0,0,-0.7589,-0.7618,-0.7628,-0.7642,-0.7726,-0.778,-0.7791,-0.7825,-0.7825,-0.7841,-0.7877,-0.7894,-0.8,-0.7987,-0.8001,-0.8018,-0.8124,-0.8126,-0.8127,-0.8105,-0.8106,-0.8107,0,0,0,0,0,0,-0.756,-0.7626,-0.7638,-0.7686,-0.7727,-0.7786,-0.7808,-0.7825,-0.7867,-0.7868,-0.7909,-0.7923,-0.797,-0.8,-0.7984,-0.8063,-0.8063,-0.8068,-0.8042,-0.8043,-0.8043,-0.8035,-0.8003,0,0,0,0,0,-0.7559,-0.7596,-0.7652,-0.7689,-0.7709,-0.7755,-0.778,-0.7803,-0.7847,-0.7865,-0.7904,-0.7948,-0.7991,-0.8019,-0.8061,-0.811,-0.8125,-0.8129,-0.813,-0.813,-0.8134,-0.8163,-0.8166,-0.8134,-0.8134,-0.8134,0,0,-0.7557,-0.7598,-0.7619,-0.7684,-0.7719,-0.7758,-0.7769,-0.781,-0.7839,-0.7871,-0.7921,-0.7952,-0.8003,-0.8054,-0.8078,-0.808,-0.8146,-0.8132,-0.8132,-0.8136,-0.8165,-0.8168,-0.8171,-0.8135,-0.8135,-0.8135,0,0,-0.7574,-0.7608,-0.7643,-0.7677,-0.7729,-0.7759,-0.7768,-0.7824,-0.7846,-0.7897,-0.7922,-0.7959,-0.8032,-0.8068,-0.8095,-0.8127,-0.8144,-0.814,-0.8143,-0.8171,-0.8173,-0.8176,-0.8188,-0.8192,-0.8144,-0.8143,-0.8143,0,-0.7565,-0.7624,-0.7659,-0.7699,-0.7727,-0.7757,-0.7794,-0.7826,-0.7889,-0.7909,-0.791,-0.8003,-0.804,-0.8099,-0.8107,-0.8128,-0.814,-0.8133,-0.817,-0.8173,-0.8176,-0.8188,-0.8192,-0.8143,-0.8143,-0.8143,-0.8143,0,-0.7612,-0.7652,-0.7674,-0.7734,-0.7765,-0.7803,-0.7845,-0.7873,-0.7894,-0.7924,-0.7977,-0.8022,-0.8075,-0.8091,-0.8111,-0.8154,-0.8154,-0.8162,-0.8163,-0.8177,-0.8189,-0.8194,-0.8141,-0.8142,-0.8142,-0.8142,0,0,-0.7612,-0.7691,-0.7699,-0.7727,-0.7786,-0.7819,-0.7859,-0.791,-0.7933,-0.7977,-0.8012,-0.8074,-0.8082,-0.8114,-0.8139,-0.8163,-0.8187,-0.8169,-0.8171,-0.8171,-0.8238,-0.8231,-0.8236,-0.8199,-0.82,-0.8201,-0.8234,0,-0.7637,-0.7708,-0.7742,-0.7799,-0.7838,-0.7867,-0.7902,-0.7943,-0.7974,-0.8012,-0.8046,-0.8089,-0.8096,-0.8116,-0.8141,-0.8178,-0.8201,-0.8177,-0.8233,-0.8235,-0.8219,-0.8242,-0.8236,-0.8265,-0.8239,-0.8239,-0.824,0,-0.7676,-0.7718,-0.7779,-0.7835,-0.7852,-0.7883,-0.7933,-0.7969,-0.8017,-0.8037,-0.8073,-0.8097,-0.8142,-0.814,-0.8203,-0.8185,-0.8211,-0.8233,-0.8235,-0.8242,-0.8238,-0.825,-0.8275,-0.8279,-0.8248,-0.8247,-0.8247,0,-0.7671,-0.7743,-0.7789,-0.7812,-0.7878,-0.7899,-0.7928,-0.7975,-0.8004,-0.8049,-0.8068,-0.8117,-0.8145,-0.8183,-0.8221,-0.8215,-0.828,-0.8281,-0.83,-0.8299,-0.8312,-0.831,-0.8341,-0.8327,-0.8327,-0.8327,-0.8327,0,-0.7696,-0.7732,-0.7788,-0.7816,-0.7858,-0.7897,-0.7937,-0.7969,-0.8011,-0.8047,-0.8076,-0.8109,-0.8157,-0.8197,-0.8227,-0.8275,-0.8287,-0.8306,-0.8313,-0.8303,-0.8301,-0.832,-0.8319,-0.8328,-0.8328,-0.8328,-0.8328,0,-0.7697,-0.7736,-0.7788,-0.7846,-0.7862,-0.789,-0.7941,-0.7971,-0.8002,-0.8048,-0.806,-0.8111,-0.8159,-0.8201,-0.8265,-0.8285,-0.8335,-0.8344,-0.8319,-0.8323,-0.8339,-0.8337,-0.8383,-0.8392,-0.8372,-0.8372,-0.8372,0,-0.771,-0.7739,-0.78,-0.7826,-0.7854,-0.7895,-0.7925,-0.7965,-0.7994,-0.8052,-0.8075,-0.8125,-0.8167,-0.8244,-0.8287,-0.8337,-0.8347,-0.836,-0.8355,-0.8344,-0.8349,-0.8346,-0.835,-0.836,-0.836,-0.8361,-0.8361,0,-0.773,-0.7748,-0.7789,-0.7837,-0.7871,-0.7911,-0.7952,-0.7972,-0.802,-0.8052,-0.8102,-0.8135,-0.82,-0.8251,-0.8305,-0.8336,-0.8357,-0.8362,-0.8369,-0.8359,-0.8343,-0.8353,-0.832,-0.8361,-0.8361,-0.8361,-0.8361,-0.8361,-0.7739,-0.7766,-0.7813,-0.7858,-0.7893,-0.7931,-0.7961,-0.7997,-0.8038,-0.8094,-0.8116,-0.8166,-0.8216,-0.8291,-0.8322,-0.8364,-0.8367,-0.8376,-0.8379,-0.8381,-0.838,-0.8336,-0.8374,-0.8374,-0.8374,-0.8374,-0.8374,0,-0.7761,-0.7793,-0.7833,-0.7889,-0.7925,-0.7941,-0.7987,-0.8016,-0.806,-0.8104,-0.8145,-0.8202,-0.8252,-0.8299,-0.8351,-0.8375,-0.8386,-0.8387,-0.8386,-0.8393,-0.8374,-0.8363,-0.8378,-0.8378,-0.8378,-0.8378,-0.8378,-0.8378,-0.7776,-0.7823,-0.7846,-0.7911,-0.7944,-0.7993,-0.8018,-0.8054,-0.8088,-0.8151,-0.8192,-0.8222,-0.8267,-0.8323,-0.8369,-0.8382,-0.84,-0.8399,-0.8415,-0.8396,-0.8395,-0.8394,-0.8384,-0.8403,-0.8403,-0.8431,-0.8431,-0.8432]},{"header":{"parameterUnit":"m.s-1","parameterCategory":1,"la1":30.2991,"la2":30.254,"lo1":-89.0895,"lo2":-89.0444,"dy":0.0017,"dx":0.0017,"nx":28,"ny":28,"refTime":"2025-04-24T21:00:00:Z","depth":0,"parameterNumber":3,"parameterNumberName":"V-component_of_WINDS"},"data":[0,0,0,0,0,0,0,0,0,0,0,0,0,0,0,0,0,0,0,0,0,0,0,0,0,0,0,0,0,0,0,0,0,0,0,0,0,0,0,0,0,0,0,0,0,0,0,0,0,0,0,0,0,0,0,0,0,0,2.3179,2.3178,0,2.3124,2.3124,2.3123,2.3096,2.3096,2.3096,2.3096,2.304,2.3039,2.3037,0,0,0,0,0,0,0,0,0,0,0,0,0,2.3259,2.3258,2.3179,2.3178,2.3177,2.3125,2.3124,2.3123,2.3096,2.3096,2.3096,2.3096,2.3041,2.3039,2.3037,0,0,0,0,0,0,0,0,0,0,0,0,0,2.3217,2.3258,2.3179,2.3157,2.3155,2.3125,2.3124,2.3123,2.3096,2.3096,2.3096,2.3096,2.3041,2.3039,2.3037,2.3023,0,0,2.303,2.3029,0,0,0,0,0,0,0,0,2.3219,2.3214,2.3161,2.3159,2.3156,2.3117,2.3132,2.3089,2.3096,2.3118,2.3096,2.3096,2.3066,2.3062,2.3051,2.3021,2.3018,2.303,2.3029,2.3028,2.3027,0,0,0,0,0,0,0,2.3222,2.3216,2.3157,2.3161,2.3157,2.3151,2.3145,2.3124,2.3093,2.3117,2.3114,2.3108,2.3064,2.3054,2.305,2.3018,2.303,2.3028,2.3027,2.3026,2.2975,2.2974,0,0,0,0,0,0,2.3228,2.3219,2.3159,2.3155,2.3188,2.3149,2.3143,2.313,2.3093,2.3087,2.3109,2.3107,2.3057,2.3052,2.3048,2.303,2.3028,2.3026,2.3024,2.2975,2.2975,2.2974,0,0,0,0,0,0,2.323,2.3223,2.3161,2.3186,2.3178,2.3148,2.3134,2.3129,2.3118,2.3087,2.3081,2.3103,2.3057,2.3051,2.303,2.3028,2.3025,2.3023,2.2975,2.2975,2.2974,2.2994,0,0,0,0,0,0,2.3233,2.3224,2.3218,2.3187,2.3177,2.3144,2.3133,2.3127,2.3114,2.3112,2.308,2.3075,2.3057,2.3033,2.3028,2.3025,2.3021,2.2975,2.2975,2.2975,2.2994,2.2995,2.2996,0,0,0,0,0,2.3236,2.3226,2.3218,2.3211,2.3169,2.3144,2.3138,2.3117,2.3114,2.3108,2.3089,2.3076,2.3029,2.3032,2.3025,2.3021,2.2975,2.2975,2.2975,2.2993,2.2995,2.2996,0,0,0,0,0,0,2.3258,2.3221,2.3212,2.3192,2.3171,2.3139,2.3131,2.3119,2.3099,2.3098,2.3073,2.3066,2.3048,2.3032,2.3036,2.3007,2.3001,2.2999,2.3017,2.3018,2.302,2.3023,2.3019,0,0,0,0,0,2.326,2.3243,2.3212,2.3197,2.3187,2.3161,2.3149,2.3135,2.3113,2.3104,2.3083,2.3061,2.3042,2.3029,2.301,2.2992,2.2985,2.2986,2.2987,2.2988,2.2987,2.2978,2.2978,2.2974,2.2974,2.2974,0,0,2.3265,2.3243,2.3234,2.3201,2.3183,2.3166,2.3154,2.3136,2.3123,2.3101,2.308,2.3064,2.3039,2.302,2.301,2.3006,2.2987,2.2988,2.2989,2.2988,2.2978,2.2978,2.2978,2.2974,2.2974,2.2974,0,0,2.3265,2.3247,2.3233,2.3215,2.3189,2.3172,2.3169,2.3139,2.3128,2.3107,2.309,2.3075,2.3041,2.3024,2.3011,2.3007,2.2995,2.3001,2.3007,2.2998,2.2998,2.2998,2.2997,2.2997,2.3,2.3001,2.3001,0,2.3275,2.3248,2.3227,2.321,2.3196,2.3177,2.3162,2.3147,2.3115,2.3107,2.3103,2.3062,2.3043,2.302,2.3019,2.3009,2.3005,2.3004,2.3,2.3,2.3,2.2998,2.2998,2.3001,2.3001,2.3001,2.3001,0,2.3261,2.3243,2.3235,2.3205,2.3191,2.3176,2.3152,2.3141,2.3128,2.3112,2.3091,2.3069,2.3045,2.3038,2.3026,2.3014,2.3012,2.3005,2.2998,2.3001,2.3,2.2999,2.3003,2.3002,2.3002,2.3002,0,0,2.3272,2.3232,2.323,2.3217,2.3187,2.3173,2.3157,2.3134,2.3124,2.3104,2.309,2.3064,2.3057,2.3042,2.3028,2.302,2.3019,2.3013,2.3012,2.3015,2.3005,2.3011,2.3011,2.3011,2.3011,2.3011,2.3007,0,2.3268,2.3238,2.322,2.3198,2.3181,2.3163,2.315,2.313,2.3115,2.3099,2.3083,2.3064,2.3056,2.3048,2.3039,2.3021,2.3016,2.3021,2.2998,2.2998,2.3005,2.301,2.3015,2.3013,2.3007,2.3006,2.3006,0,2.3259,2.3239,2.3216,2.3189,2.3182,2.317,2.3148,2.3133,2.3111,2.3101,2.3085,2.3071,2.3054,2.305,2.3027,2.3031,2.3021,2.301,2.301,2.3007,2.3002,2.3006,2.3012,2.3012,2.3005,2.3005,2.3005,0,2.3269,2.3237,2.322,2.3209,2.3177,2.317,2.3156,2.3134,2.3122,2.3103,2.3095,2.3074,2.3063,2.3048,2.3029,2.3027,2.3008,2.3002,2.2999,2.2999,2.2995,2.2995,2.2999,2.2989,2.2989,2.2989,2.2989,0,2.3266,2.3253,2.3224,2.3213,2.3198,2.3177,2.3163,2.3148,2.3129,2.3115,2.3099,2.3086,2.3062,2.3047,2.3032,2.3015,2.301,2.3002,2.2998,2.3003,2.3004,2.2996,2.2995,2.2989,2.2989,2.2989,2.2989,0,2.3275,2.3255,2.3235,2.3207,2.32,2.319,2.3166,2.3156,2.314,2.3123,2.3118,2.3094,2.3075,2.3055,2.3029,2.3019,2.3004,2.2999,2.3011,2.3009,2.3008,2.3008,2.3005,2.3004,2.2996,2.2996,2.2996,0,2.3274,2.3264,2.3235,2.3225,2.3212,2.3196,2.3183,2.3163,2.3151,2.3126,2.3119,2.3099,2.3082,2.3053,2.3033,2.3014,2.3008,2.3009,2.3005,2.3011,2.3008,2.3009,2.3008,2.3009,2.301,2.301,2.301,0,2.3275,2.3266,2.3249,2.3229,2.3215,2.3198,2.3181,2.3173,2.315,2.3137,2.3118,2.3105,2.308,2.3061,2.3039,2.3026,2.3014,2.3011,2.301,2.3015,2.3023,2.3019,2.3014,2.3011,2.3011,2.3011,2.3011,2.3011,2.3279,2.3269,2.3248,2.323,2.3215,2.3199,2.3188,2.3172,2.3155,2.3133,2.3122,2.3104,2.3084,2.3054,2.3041,2.3026,2.3023,2.302,2.302,2.3019,2.3021,2.3026,2.3022,2.3022,2.3022,2.3022,2.3022,0,2.3279,2.3265,2.3249,2.3225,2.3211,2.3202,2.3183,2.3172,2.3155,2.3138,2.3122,2.3101,2.3083,2.3062,2.3043,2.3035,2.303,2.3031,2.3031,2.3028,2.3025,2.3028,2.3036,2.3036,2.3036,2.3036,2.3036,2.3036,2.3278,2.3261,2.325,2.3225,2.3211,2.3193,2.3183,2.3169,2.3155,2.3132,2.3117,2.3104,2.3085,2.3065,2.3048,2.3043,2.3036,2.3039,2.3032,2.303,2.3028,2.3027,2.303,2.3038,2.3038,2.3037,2.3037,2.3037]}]]